TimeCDT,TemperatureF,Dew PointF,Humidity,Sea Level PressureIn,VisibilityMPH,Wind Direction,Wind SpeedMPH,Gust SpeedMPH,PrecipitationIn,Events,Conditions,WindDirDegrees,DateUTC
12:51 AM,75.0,64.0,69,29.93,10.0,SSE,11.5,-,N/A,,Clear,150,2013-09-10 05:51:00
1:51 AM,73.0,64.9,76,29.93,10.0,SSE,6.9,-,N/A,,Clear,160,2013-09-10 06:51:00
2:51 AM,72.0,64.9,78,29.94,10.0,SE,4.6,-,N/A,,Clear,140,2013-09-10 07:51:00
3:51 AM,72.0,64.9,78,29.95,10.0,ESE,3.5,-,N/A,,Mostly Cloudy,110,2013-09-10 08:51:00
4:51 AM,71.1,64.9,81,29.94,10.0,ENE,5.8,-,N/A,,Overcast,70,2013-09-10 09:51:00
5:51 AM,72.0,64.9,78,29.95,10.0,ENE,4.6,-,N/A,,Overcast,70,2013-09-10 10:51:00
6:28 AM,71.6,66.2,83,30.03,10.0,East,6.9,-,N/A,,Overcast,90,2013-09-10 11:28:00
6:51 AM,72.0,66.0,81,29.96,10.0,East,4.6,-,N/A,,Overcast,80,2013-09-10 11:51:00
6:58 AM,71.6,66.2,83,30.03,10.0,East,5.8,-,N/A,,Overcast,80,2013-09-10 11:58:00
7:21 AM,73.4,66.2,78,30.04,10.0,East,4.6,-,N/A,,Overcast,90,2013-09-10 12:21:00
7:51 AM,73.0,66.9,81,29.97,10.0,SE,9.2,-,N/A,,Overcast,130,2013-09-10 12:51:00
8:25 AM,73.4,66.2,78,30.06,10.0,ESE,8.1,-,N/A,,Overcast,120,2013-09-10 13:25:00
8:51 AM,73.9,66.9,79,29.99,10.0,SE,11.5,-,N/A,,Overcast,130,2013-09-10 13:51:00
9:03 AM,71.6,68.0,88,30.07,4.0,SE,10.4,-,0.00,Rain,Light Rain,130,2013-09-10 14:03:00
9:13 AM,71.6,69.8,94,30.07,2.0,ESE,6.9,-,0.00,Rain,Light Rain,120,2013-09-10 14:13:00
9:15 AM,71.6,69.8,94,30.07,1.8,ESE,8.1,-,0.00,Rain,Light Rain,120,2013-09-10 14:15:00
9:24 AM,71.6,69.8,94,30.07,3.0,ESE,8.1,-,0.00,Rain,Light Rain,120,2013-09-10 14:24:00
9:51 AM,73.9,69.1,85,30.01,10.0,SE,6.9,-,0.00,,Overcast,130,2013-09-10 14:51:00
10:51 AM,75.9,68.0,76,30.03,9.0,SE,9.2,-,N/A,,Overcast,140,2013-09-10 15:51:00
11:39 AM,80.6,66.2,61,30.09,10.0,SSE,9.2,-,0.00,,Overcast,150,2013-09-10 16:39:00
11:51 AM,81.0,66.9,62,30.03,10.0,South,12.7,-,0.00,,Overcast,170,2013-09-10 16:51:00
12:51 PM,82.9,66.0,56,30.01,10.0,SSE,11.5,18.4,N/A,,Overcast,150,2013-09-10 17:51:00
1:51 PM,86.0,64.0,48,29.99,10.0,SE,8.1,19.6,N/A,,Overcast,130,2013-09-10 18:51:00
2:51 PM,84.0,66.9,56,29.98,9.0,ESE,18.4,24.2,0.00,Rain,Light Rain,110,2013-09-10 19:51:00
3:51 PM,82.9,66.9,58,29.96,10.0,SE,15.0,23.0,0.01,,Mostly Cloudy,130,2013-09-10 20:51:00
4:51 PM,82.9,64.0,53,29.95,10.0,SSE,10.4,-,N/A,,Mostly Cloudy,150,2013-09-10 21:51:00
5:51 PM,84.0,64.9,53,29.95,10.0,SE,13.8,21.9,N/A,,Partly Cloudy,140,2013-09-10 22:51:00
6:51 PM,82.9,64.0,53,29.96,10.0,SSE,15.0,-,N/A,,Clear,150,2013-09-10 23:51:00
7:51 PM,81.0,64.9,58,29.97,10.0,SE,10.4,-,N/A,,Mostly Cloudy,130,2013-09-11 00:51:00
8:51 PM,79.0,66.0,64,29.99,10.0,SE,6.9,-,N/A,,Partly Cloudy,140,2013-09-11 01:51:00
9:51 PM,79.0,66.0,64,30.01,10.0,SE,13.8,19.6,N/A,,Clear,130,2013-09-11 02:51:00
10:51 PM,77.0,66.9,71,30.03,10.0,SE,8.1,-,N/A,,Clear,130,2013-09-11 03:51:00
11:51 PM,75.9,66.0,71,30.02,10.0,SE,9.2,-,N/A,,Scattered Clouds,140,2013-09-11 04:51:00